Time,TemperatureF,DewpointF,PressureIn,WindDirection,WindDirectionDegrees,WindSpeedMPH,WindSpeedGustMPH,Humidity,HourlyPrecipIn,Conditions,Clouds,dailyrainin,SoftwareType,DateUTC
2013-01-26 00:02:00,40.0,39.0,30.22,NNW,343,5.0,-999.0,95,-99.99,,,0.00,,2013-01-26 06:02:00,
2013-01-26 00:12:00,40.0,39.0,30.22,NNW,343,5.0,-999.0,95,-99.99,,,0.00,,2013-01-26 06:12:00,
2013-01-26 00:21:00,40.0,39.0,30.22,North,359,4.0,-999.0,95,-99.99,,,0.00,,2013-01-26 06:21:00,
2013-01-26 00:32:00,40.0,39.0,30.22,North,359,4.0,-999.0,95,-99.99,,,0.00,,2013-01-26 06:32:00,
2013-01-26 00:41:00,40.0,39.0,30.22,North,359,4.0,-999.0,95,-99.99,,,0.00,,2013-01-26 06:41:00,
2013-01-26 00:51:00,40.0,39.0,30.24,NNW,342,2.0,-999.0,95,-99.99,,,0.00,,2013-01-26 06:51:00,
2013-01-26 01:02:00,40.0,38.0,30.25,NW,322,4.0,-999.0,94,-99.99,,,0.00,,2013-01-26 07:02:00,
2013-01-26 01:12:00,40.0,38.0,30.25,NW,322,4.0,-999.0,94,-99.99,,,0.00,,2013-01-26 07:12:00,
2013-01-26 01:21:00,40.0,38.0,30.25,NW,322,4.0,-999.0,94,-99.99,,,0.00,,2013-01-26 07:21:00,
2013-01-26 01:33:00,40.0,38.0,30.25,North,4,5.0,-999.0,94,-99.99,,,0.00,,2013-01-26 07:33:00,
2013-01-26 01:41:00,40.0,38.0,30.25,North,4,5.0,-999.0,94,-99.99,,,0.00,,2013-01-26 07:41:00,
2013-01-26 01:51:00,40.0,38.0,30.25,NW,326,4.0,-999.0,93,-99.99,,,0.00,,2013-01-26 07:51:00,
2013-01-26 02:02:00,39.0,37.0,30.26,North,4,5.0,-999.0,92,-99.99,,,0.00,,2013-01-26 08:02:00,
2013-01-26 02:11:00,39.0,37.0,30.26,North,4,5.0,-999.0,92,-99.99,,,0.00,,2013-01-26 08:11:00,
2013-01-26 02:21:00,39.0,37.0,30.26,North,4,5.0,-999.0,92,-99.99,,,0.00,,2013-01-26 08:21:00,
2013-01-26 02:31:00,39.0,37.0,30.26,North,4,4.0,-999.0,92,-99.99,,,0.00,,2013-01-26 08:31:00,
2013-01-26 02:42:00,39.0,37.0,30.26,North,4,4.0,-999.0,92,-99.99,,,0.00,,2013-01-26 08:42:00,
2013-01-26 02:54:00,38.0,36.0,30.26,North,350,4.0,-999.0,92,-99.99,,,0.00,,2013-01-26 08:54:00,
2013-01-26 03:02:00,38.0,36.0,30.26,North,354,4.0,-999.0,92,-99.99,,,0.00,,2013-01-26 09:02:00,
2013-01-26 03:11:00,38.0,36.0,30.26,North,354,4.0,-999.0,92,-99.99,,,0.00,,2013-01-26 09:11:00,
2013-01-26 03:22:00,38.0,36.0,30.27,NNW,346,5.0,-999.0,92,-99.99,,,0.00,,2013-01-26 09:22:00,
2013-01-26 03:32:00,38.0,36.0,30.27,NNW,337,3.0,-999.0,92,-99.99,,,0.00,,2013-01-26 09:32:00,
2013-01-26 03:42:00,38.0,36.0,30.27,NNW,337,3.0,-999.0,92,-99.99,,,0.00,,2013-01-26 09:42:00,
2013-01-26 03:51:00,38.0,36.0,30.27,North,359,3.0,-999.0,91,-99.99,,,0.00,,2013-01-26 09:51:00,
2013-01-26 04:01:00,37.0,35.0,30.28,NNE,14,3.0,-999.0,92,-99.99,,,0.00,,2013-01-26 10:01:00,
2013-01-26 04:11:00,37.0,35.0,30.28,NNE,14,3.0,-999.0,92,-99.99,,,0.00,,2013-01-26 10:11:00,
2013-01-26 04:21:00,37.0,35.0,30.27,NNE,19,2.0,-999.0,91,-99.99,,,0.00,,2013-01-26 10:21:00,
2013-01-26 04:31:00,37.0,35.0,30.27,NNE,18,1.0,-999.0,92,-99.99,,,0.00,,2013-01-26 10:31:00,
2013-01-26 04:42:00,37.0,35.0,30.27,NNE,18,1.0,-999.0,92,-99.99,,,0.00,,2013-01-26 10:42:00,
2013-01-26 04:52:00,36.0,34.0,30.27,NNE,24,2.0,-999.0,92,-99.99,,,0.00,,2013-01-26 10:52:00,
2013-01-26 05:01:00,36.0,34.0,30.28,NNW,341,3.0,-999.0,91,-99.99,,,0.00,,2013-01-26 11:01:00,
2013-01-26 05:12:00,36.0,34.0,30.28,NNW,341,3.0,-999.0,91,-99.99,,,0.00,,2013-01-26 11:12:00,
2013-01-26 05:22:00,36.0,34.0,30.27,NNE,29,2.0,-999.0,91,-99.99,,,0.00,,2013-01-26 11:22:00,
2013-01-26 05:32:00,36.0,34.0,30.27,NNE,29,2.0,-999.0,91,-99.99,,,0.00,,2013-01-26 11:32:00,
2013-01-26 05:42:00,36.0,34.0,30.27,NNE,29,2.0,-999.0,91,-99.99,,,0.00,,2013-01-26 11:42:00,
2013-01-26 05:52:00,35.0,33.0,30.29,North,354,2.0,-999.0,91,-99.99,,,0.00,,2013-01-26 11:52:00,
2013-01-26 06:02:00,35.0,33.0,30.30,North,359,2.0,-999.0,92,-99.99,,,0.00,,2013-01-26 12:02:00,
2013-01-26 06:12:00,35.0,33.0,30.30,North,359,2.0,-999.0,92,-99.99,,,0.00,,2013-01-26 12:12:00,
2013-01-26 06:22:00,35.0,33.0,30.30,North,354,2.0,-999.0,92,-99.99,,,0.00,,2013-01-26 12:22:00,
2013-01-26 06:33:00,35.0,33.0,30.30,NNW,342,2.0,-999.0,92,-99.99,,,0.00,,2013-01-26 12:33:00,
2013-01-26 06:42:00,35.0,33.0,30.30,NNW,342,2.0,-999.0,92,-99.99,,,0.00,,2013-01-26 12:42:00,
2013-01-26 06:52:00,35.0,33.0,30.30,NNW,342,1.0,-999.0,93,-99.99,,,0.00,,2013-01-26 12:52:00,
2013-01-26 07:03:00,35.0,33.0,30.31,NNW,342,1.0,-999.0,93,-99.99,,,0.00,,2013-01-26 13:03:00,
2013-01-26 07:12:00,35.0,33.0,30.31,NNW,342,1.0,-999.0,93,-99.99,,,0.00,,2013-01-26 13:12:00,
2013-01-26 07:22:00,35.0,33.0,30.31,NNW,342,1.0,-999.0,93,-99.99,,,0.00,,2013-01-26 13:22:00,
2013-01-26 07:32:00,34.0,32.0,30.32,NNW,342,0.0,-999.0,94,-99.99,,,0.00,,2013-01-26 13:32:00,
2013-01-26 07:42:00,34.0,32.0,30.32,NNW,342,0.0,-999.0,94,-99.99,,,0.00,,2013-01-26 13:42:00,
2013-01-26 07:53:00,34.0,33.0,30.31,NNW,342,0.0,-999.0,95,-99.99,,,0.00,,2013-01-26 13:53:00,
2013-01-26 08:03:00,34.0,33.0,30.31,NNW,342,0.0,-999.0,95,-99.99,,,0.00,,2013-01-26 14:03:00,
2013-01-26 08:12:00,34.0,33.0,30.31,NNW,342,0.0,-999.0,95,-99.99,,,0.00,,2013-01-26 14:12:00,
2013-01-26 08:21:00,35.0,33.0,30.33,NNW,329,1.0,-999.0,94,-99.99,,,0.00,,2013-01-26 14:21:00,
2013-01-26 08:32:00,35.0,33.0,30.34,NW,326,2.0,-999.0,93,-99.99,,,0.00,,2013-01-26 14:32:00,
2013-01-26 08:43:00,35.0,33.0,30.34,NW,326,2.0,-999.0,93,-99.99,,,0.00,,2013-01-26 14:43:00,
2013-01-26 08:52:00,36.0,34.0,30.34,NNW,338,2.0,-999.0,92,-99.99,,,0.00,,2013-01-26 14:52:00,
2013-01-26 09:03:00,36.0,34.0,30.34,NNW,338,2.0,-999.0,92,-99.99,,,0.00,,2013-01-26 15:03:00,
2013-01-26 09:12:00,36.0,34.0,30.34,NNW,338,2.0,-999.0,92,-99.99,,,0.00,,2013-01-26 15:12:00,
2013-01-26 09:22:00,37.0,34.0,30.34,North,349,3.0,-999.0,90,-99.99,,,0.00,,2013-01-26 15:22:00,
2013-01-26 09:32:00,38.0,35.0,30.35,NNE,19,2.0,-999.0,88,-99.99,,,0.00,,2013-01-26 15:32:00,
2013-01-26 09:43:00,38.0,35.0,30.35,NNE,19,2.0,-999.0,88,-99.99,,,0.00,,2013-01-26 15:43:00,
2013-01-26 09:53:00,38.0,35.0,30.35,North,359,3.0,-999.0,88,-99.99,,,0.00,,2013-01-26 15:53:00,
2013-01-26 10:02:00,40.0,35.0,30.36,North,4,4.0,-999.0,82,-99.99,,,0.00,,2013-01-26 16:02:00,
2013-01-26 10:12:00,40.0,35.0,30.36,North,4,4.0,-999.0,82,-99.99,,,0.00,,2013-01-26 16:12:00,
2013-01-26 10:22:00,41.0,35.0,30.36,North,354,2.0,-999.0,78,-99.99,,,0.00,,2013-01-26 16:22:00,
2013-01-26 10:33:00,42.0,34.0,30.36,North,359,4.0,-999.0,74,-99.99,,,0.00,,2013-01-26 16:33:00,
2013-01-26 10:42:00,42.0,34.0,30.36,North,359,4.0,-999.0,74,-99.99,,,0.00,,2013-01-26 16:42:00,
2013-01-26 10:53:00,42.0,34.0,30.36,NNE,24,5.0,-999.0,73,-99.99,,,0.00,,2013-01-26 16:53:00,
2013-01-26 11:03:00,43.0,35.0,30.35,NE,37,3.0,-999.0,72,-99.99,,,0.00,,2013-01-26 17:03:00,
2013-01-26 11:12:00,43.0,35.0,30.35,NE,37,3.0,-999.0,72,-99.99,,,0.00,,2013-01-26 17:12:00,
2013-01-26 11:22:00,43.0,35.0,30.35,NE,37,3.0,-999.0,72,-99.99,,,0.00,,2013-01-26 17:22:00,
2013-01-26 11:33:00,45.0,35.0,30.34,ENE,62,2.0,-999.0,69,-99.99,,,0.00,,2013-01-26 17:33:00,
2013-01-26 11:42:00,45.0,35.0,30.34,ENE,62,2.0,-999.0,69,-99.99,,,0.00,,2013-01-26 17:42:00,
2013-01-26 11:53:00,45.0,35.0,30.33,North,10,3.0,-999.0,69,-99.99,,,0.00,,2013-01-26 17:53:00,
2013-01-26 12:02:00,45.0,35.0,30.32,NE,54,2.0,-999.0,67,-99.99,,,0.00,,2013-01-26 18:02:00,
2013-01-26 12:12:00,45.0,35.0,30.32,NE,54,2.0,-999.0,67,-99.99,,,0.00,,2013-01-26 18:12:00,
2013-01-26 12:22:00,46.0,35.0,30.32,NNW,341,2.0,-999.0,64,-99.99,,,0.00,,2013-01-26 18:22:00,
2013-01-26 12:33:00,47.0,35.0,30.31,West,268,2.0,-999.0,63,-99.99,,,0.00,,2013-01-26 18:33:00,
2013-01-26 12:42:00,47.0,35.0,30.31,West,268,2.0,-999.0,63,-99.99,,,0.00,,2013-01-26 18:42:00,
2013-01-26 12:52:00,48.0,34.0,30.30,NNW,328,4.0,-999.0,59,-99.99,,,0.00,,2013-01-26 18:52:00,
2013-01-26 13:03:00,48.0,34.0,30.30,NNW,328,4.0,-999.0,59,-99.99,,,0.00,,2013-01-26 19:03:00,
2013-01-26 13:12:00,48.0,34.0,30.30,NNW,328,4.0,-999.0,59,-99.99,,,0.00,,2013-01-26 19:12:00,
2013-01-26 13:22:00,50.0,33.0,30.30,NNE,24,4.0,-999.0,51,-99.99,,,0.00,,2013-01-26 19:22:00,
2013-01-26 13:32:00,51.0,35.0,30.29,NW,305,3.0,-999.0,54,-99.99,,,0.00,,2013-01-26 19:32:00,
2013-01-26 13:42:00,51.0,35.0,30.29,NW,305,3.0,-999.0,54,-99.99,,,0.00,,2013-01-26 19:42:00,
2013-01-26 13:52:00,51.0,35.0,30.28,WNW,291,4.0,-999.0,55,-99.99,,,0.00,,2013-01-26 19:52:00,
2013-01-26 14:02:00,51.0,35.0,30.28,North,354,3.0,-999.0,54,-99.99,,,0.00,,2013-01-26 20:02:00,
2013-01-26 14:11:00,51.0,35.0,30.28,North,354,3.0,-999.0,54,-99.99,,,0.00,,2013-01-26 20:11:00,
2013-01-26 14:21:00,52.0,34.0,30.28,North,10,3.0,-999.0,51,-99.99,,,0.00,,2013-01-26 20:21:00,
2013-01-26 14:32:00,53.0,35.0,30.28,NNW,345,2.0,-999.0,51,-99.99,,,0.00,,2013-01-26 20:32:00,
2013-01-26 14:42:00,53.0,35.0,30.28,NNW,345,2.0,-999.0,51,-99.99,,,0.00,,2013-01-26 20:42:00,
2013-01-26 14:52:00,53.0,35.0,30.28,NNW,342,3.0,-999.0,51,-99.99,,,0.00,,2013-01-26 20:52:00,
2013-01-26 15:02:00,53.0,36.0,30.28,North,4,4.0,-999.0,52,-99.99,,,0.00,,2013-01-26 21:02:00,
2013-01-26 15:12:00,53.0,36.0,30.28,North,4,4.0,-999.0,52,-99.99,,,0.00,,2013-01-26 21:12:00,
2013-01-26 15:22:00,53.0,35.0,30.28,North,354,4.0,-999.0,51,-99.99,,,0.00,,2013-01-26 21:22:00,
2013-01-26 15:32:00,53.0,36.0,30.28,NNW,339,1.0,-999.0,52,-99.99,,,0.00,,2013-01-26 21:32:00,
2013-01-26 15:42:00,53.0,36.0,30.28,NNW,339,1.0,-999.0,52,-99.99,,,0.00,,2013-01-26 21:42:00,
2013-01-26 15:51:00,53.0,35.0,30.28,WNW,298,2.0,-999.0,50,-99.99,,,0.00,,2013-01-26 21:51:00,
2013-01-26 16:01:00,53.0,35.0,30.27,NNW,336,4.0,-999.0,51,-99.99,,,0.00,,2013-01-26 22:01:00,
2013-01-26 16:11:00,53.0,35.0,30.27,NNW,336,4.0,-999.0,51,-99.99,,,0.00,,2013-01-26 22:11:00,
2013-01-26 16:21:00,52.0,35.0,30.27,NNW,338,3.0,-999.0,52,-99.99,,,0.00,,2013-01-26 22:21:00,
2013-01-26 16:32:00,52.0,35.0,30.27,NNW,338,3.0,-999.0,52,-99.99,,,0.00,,2013-01-26 22:32:00,
2013-01-26 16:42:00,52.0,35.0,30.27,NNW,338,3.0,-999.0,52,-99.99,,,0.00,,2013-01-26 22:42:00,
2013-01-26 16:52:00,51.0,34.0,30.28,NW,308,3.0,-999.0,52,-99.99,,,0.00,,2013-01-26 22:52:00,
2013-01-26 17:01:00,51.0,34.0,30.28,NW,308,3.0,-999.0,53,-99.99,,,0.00,,2013-01-26 23:01:00,
2013-01-26 17:12:00,51.0,34.0,30.28,NW,308,3.0,-999.0,53,-99.99,,,0.00,,2013-01-26 23:12:00,
2013-01-26 17:22:00,49.0,34.0,30.29,NNW,344,2.0,-999.0,55,-99.99,,,0.00,,2013-01-26 23:22:00,
2013-01-26 17:32:00,48.0,36.0,30.29,NNW,344,0.0,-999.0,63,-99.99,,,0.00,,2013-01-26 23:32:00,
2013-01-26 17:42:00,48.0,36.0,30.29,NNW,344,0.0,-999.0,63,-99.99,,,0.00,,2013-01-26 23:42:00,
2013-01-26 17:52:00,44.0,36.0,30.30,NNW,344,0.0,-999.0,72,-99.99,,,0.00,,2013-01-26 23:52:00,
2013-01-26 18:02:00,43.0,36.0,30.29,NNW,344,0.0,-999.0,76,-99.99,,,0.00,,2013-01-27 00:02:00,
2013-01-26 18:11:00,43.0,36.0,30.29,NNW,344,0.0,-999.0,76,-99.99,,,0.00,,2013-01-27 00:11:00,
2013-01-26 18:21:00,41.0,35.0,30.29,NNE,29,1.0,-999.0,78,-99.99,,,0.00,,2013-01-27 00:21:00,
2013-01-26 18:32:00,41.0,35.0,30.29,NNE,29,0.0,-999.0,80,-99.99,,,0.00,,2013-01-27 00:32:00,
2013-01-26 18:42:00,41.0,35.0,30.29,NNE,29,0.0,-999.0,80,-99.99,,,0.00,,2013-01-27 00:42:00,
2013-01-26 18:52:00,40.0,35.0,30.30,NNE,29,0.0,-999.0,82,-99.99,,,0.00,,2013-01-27 00:52:00,
2013-01-26 19:01:00,39.0,35.0,30.31,NNE,29,0.0,-999.0,84,-99.99,,,0.00,,2013-01-27 01:01:00,
2013-01-26 19:11:00,39.0,35.0,30.31,NNE,29,0.0,-999.0,84,-99.99,,,0.00,,2013-01-27 01:11:00,
2013-01-26 19:22:00,38.0,34.0,30.31,NNE,29,0.0,-999.0,87,-99.99,,,0.00,,2013-01-27 01:22:00,
2013-01-26 19:32:00,39.0,36.0,30.32,NNE,29,0.0,-999.0,88,-99.99,,,0.00,,2013-01-27 01:32:00,
2013-01-26 19:42:00,39.0,36.0,30.32,NNE,29,0.0,-999.0,88,-99.99,,,0.00,,2013-01-27 01:42:00,
2013-01-26 19:52:00,40.0,37.0,30.32,NNE,29,0.0,-999.0,88,-99.99,,,0.00,,2013-01-27 01:52:00,
2013-01-26 20:01:00,40.0,37.0,30.32,NNE,29,0.0,-999.0,88,-99.99,,,0.00,,2013-01-27 02:01:00,
2013-01-26 20:11:00,40.0,37.0,30.32,NNE,29,0.0,-999.0,88,-99.99,,,0.00,,2013-01-27 02:11:00,
2013-01-26 20:22:00,43.0,37.0,30.33,NNE,14,1.0,-999.0,80,-99.99,,,0.00,,2013-01-27 02:22:00,
2013-01-26 20:31:00,44.0,36.0,30.32,North,359,1.0,-999.0,73,-99.99,,,0.00,,2013-01-27 02:31:00,
2013-01-26 20:42:00,44.0,36.0,30.32,North,359,1.0,-999.0,73,-99.99,,,0.00,,2013-01-27 02:42:00,
2013-01-26 20:52:00,46.0,35.0,30.32,NE,47,3.0,-999.0,65,-99.99,,,0.00,,2013-01-27 02:52:00,
2013-01-26 21:02:00,46.0,35.0,30.32,NE,39,1.0,-999.0,66,-99.99,,,0.00,,2013-01-27 03:02:00,
2013-01-26 21:11:00,46.0,35.0,30.32,NE,39,1.0,-999.0,66,-99.99,,,0.00,,2013-01-27 03:11:00,
2013-01-26 21:21:00,46.0,35.0,30.32,NE,39,1.0,-999.0,66,-99.99,,,0.00,,2013-01-27 03:21:00,
2013-01-26 21:31:00,46.0,35.0,30.32,NE,39,1.0,-999.0,66,-99.99,,,0.00,,2013-01-27 03:31:00,
2013-01-26 21:42:00,46.0,35.0,30.32,NE,39,1.0,-999.0,66,-99.99,,,0.00,,2013-01-27 03:42:00,
2013-01-26 22:02:00,45.0,35.0,30.33,NNW,347,1.0,-999.0,69,-99.99,,,0.00,,2013-01-27 04:02:00,
2013-01-26 22:11:00,45.0,35.0,30.33,NNW,347,1.0,-999.0,69,-99.99,,,0.00,,2013-01-27 04:11:00,
2013-01-26 22:21:00,44.0,36.0,30.33,NNW,332,1.0,-999.0,74,-99.99,,,0.00,,2013-01-27 04:21:00,
2013-01-26 22:32:00,43.0,36.0,30.32,NNW,332,0.0,-999.0,77,-99.99,,,0.00,,2013-01-27 04:32:00,
2013-01-26 22:41:00,43.0,36.0,30.32,NNW,332,0.0,-999.0,77,-99.99,,,0.00,,2013-01-27 04:41:00,
2013-01-26 22:52:00,42.0,36.0,30.32,NNW,332,0.0,-999.0,80,-99.99,,,0.00,,2013-01-27 04:52:00,
2013-01-26 23:03:00,41.0,36.0,30.33,NNW,332,0.0,-999.0,81,-99.99,,,0.00,,2013-01-27 05:03:00,
2013-01-26 23:12:00,41.0,36.0,30.33,NNW,332,0.0,-999.0,81,-99.99,,,0.00,,2013-01-27 05:12:00,
2013-01-26 23:22:00,41.0,36.0,30.33,NNW,331,0.0,-999.0,83,-99.99,,,0.00,,2013-01-27 05:22:00,
2013-01-26 23:32:00,41.0,36.0,30.33,NNW,331,0.0,-999.0,83,-99.99,,,0.00,,2013-01-27 05:32:00,
2013-01-26 23:41:00,41.0,36.0,30.33,NNW,331,0.0,-999.0,83,-99.99,,,0.00,,2013-01-27 05:41:00,
2013-01-26 23:52:00,41.0,36.0,30.33,NNW,332,0.0,-999.0,82,-99.99,,,0.00,,2013-01-27 05:52:00,